Voltar ao catálogo

STARLINK-1454

AtivoComunicaçõesVLEO
NORAD 45671·PAYLOAD·🇺🇸 United States

Lançado Jun 4, 2020 de Cape Canaveral Space Force Station

Loading…

Próximas Passagens (próximas 24 horas)

TLE

AtualizadoSource: CelesTrak SupGP

Época: Sep 14, 2026, 13:59 UTC

1 45671C 20035Q   26257.58312500  .00141060  00000+0  46491-3 0  2574
2 45671  53.0357 199.7495 0006109  77.7890 291.5559 15.89622741    18

Acompanhe STARLINK-1454 em tempo real com AllMySat

Download on the App Store